星链-3100 (STARLINK-3100 )

导读 | 星芒AI

STARLINK-3100 是 SpaceX Starlink 项目中的第 3100 颗卫星,属于其低轨卫星互联网星座的一部分。该卫星旨在为全球用户提供高速、低延迟的互联网服务,尤其在偏远和网络基础设施薄弱的地区。它采用先进的通信技术,支持 Ku 和 Ka 频段,具备自动避撞功能,以确保太空安全。STARLINK-3100 的发射和运行进一步增强了 Starlink 网络的覆盖能力与稳定性,助力实现全球宽带接入的愿景。

基本信息
目录编号:
49144
目录名称:
STARLINK-3100
国际标识:
2021-082Q
轨道中心:
EARTH
卫星名称:
星链-3100
卫星全名:
星链-3100 (STARLINK-3100 )
卫星状态:
在轨 (已飞行1557 天)
发射日期:
2021-09-14 UTC
国别 :
美国 (US)
星等 :
--
轨道信息
数据来源 国际轨道数据
星历时间: 2025-12-19T04:31:22+0800
23小时前
查看轨道信息
半长轴: 6950.189km
偏心率: 0.0002473
轨道倾角: 70.000°
近地点辐角 268.650°
升交点赤经 138.256°
平近点角 91.438°
近地点: 570.335km
远地点: 573.773km
周期: 96.107分钟
每日圈数: 14.983313
详细信息
固有亮度:
5
最大亮度:
2.5
卫星平台:
Starlink v1.5
覆盖范围:
全球
运营商:
太空探索技术公司
运营商所在国:
美国
制造商(研发单位):
太空探索技术公司
制造商所在国:
美国
使用方式:
暂无
卫星简介
星链(Starlink)计划是由太空探索技术公司(SpaceX)提出的一个巨型低轨卫星互联网星座项目,计划在2019年至2024年间在太空搭建由约1.2万颗卫星组成的“星链”网络,其中1584颗将部署在地球上空550千米处的近地轨道,并从2020年开始工作。该卫星仍在工作。
2D轨道图
3D轨道图
轨道高度分析图
轨道倾角分析图
轨道综合分析图
查看轨道综合分析图